Istanbul, Turkey

3:32 PM +03 on December 03, 2016 (GMT +0300)
Ataturk

Weather History for LTBA - October, 2010

Change the Weather History Date:

Sunday, October 31, 2010

  Actual Average Record
Temperature  
Mean Temperature 54 °F -  
Max Temperature 64 °F 60 °F 70 °F (2012)
Min Temperature 43 °F 51 °F 42 °F (2016)
Degree Days  
Heating Degree Days 12    
Growing Degree Days 4 (Base 50)    
Moisture  
Dew Point 44 °F    
Average Humidity 67    
Maximum Humidity 82    
Minimum Humidity 38    
Precipitation  
Precipitation 0.00 in - - ()
Sea Level Pressure  
Sea Level Pressure 30.22 in    
Wind  
Wind Speed 7 mph ()    
Max Wind Speed 14 mph    
Max Gust Speed -    
Visibility 4.2 miles    
Events      
Averages and records for this station are not official NWS values.
T = Trace of Precipitation, MM = Missing Value Source: Averaged Metar Reports

Daily Weather History Graph

Daily Weather History Graph

Search for Another Location

Airport or City:

Trip Planner

Search our weather history database for the weather conditions in past years. The results will help you decide how hot, cold, wet, or windy it might be!

Date:

Astronomy

Oct. 31, 2010 Rise Set
Actual Time 6:33 AM EET 5:02 PM EET
Civil Twilight 6:05 AM EET 5:30 PM EET
Nautical Twilight 5:33 AM EET 6:03 PM EET
Astronomical Twilight 5:01 AM EET 6:34 PM EET
Moon No Moon Rise 1:30 PM EET (10/31)
Length of Visible Light 11h 25m
Length of Day
10h 28m
Last Quarter, 40% of the Moon is Illuminated
Oct 31
Last Quarter
Nov 6
New
Nov 13
First Quarter
Nov 21
Full
Nov 28
Last Quarter

Hourly Weather History & Observations

Time (EET) Temp. Windchill Dew Point Humidity Pressure Visibility Wind Dir Wind Speed Gust Speed Precip Events Conditions
12:20 AM 51.8 °F - 39.2 °F 62% 30.24 in - Variable 8.1 mph - N/A   Clear
12:50 AM 50.0 °F - 39.2 °F 66% 30.24 in - NE 6.9 mph - N/A   Clear
1:20 AM 50.0 °F - 39.2 °F 66% 30.24 in 4.3 mi NNE 6.9 mph - N/A   Unknown
1:50 AM 48.2 °F - 39.2 °F 71% 30.24 in 5.0 mi NNE 4.6 mph - N/A   Unknown
2:20 AM 50.0 °F - 39.2 °F 66% 30.24 in 3.7 mi NE 5.8 mph - N/A   Unknown
3:00 AM 48 °F - 40 °F 64% 30.25 in 4 mi NNE 4.6 mph - -   Mist
3:50 AM 44.6 °F 42.2 °F 37.4 °F 76% 30.24 in 3.7 mi North 4.6 mph - N/A   Unknown
3:20 AM 44.6 °F 42.2 °F 37.4 °F 76% 30.24 in 3.7 mi North 4.6 mph - N/A   Unknown
3:50 AM 48.2 °F - 41.0 °F 76% 30.21 in 3.7 mi NNE 5.8 mph - N/A   Unknown
4:20 AM 48.2 °F - 41.0 °F 76% 30.21 in 3.7 mi NNE 5.8 mph - N/A   Unknown
4:50 AM 48.2 °F - 41.0 °F 76% 30.21 in 2.5 mi NNE 5.8 mph - N/A   Mist
5:20 AM 48.2 °F - 41.0 °F 76% 30.21 in 3.7 mi NNE 5.8 mph - N/A   Unknown
5:50 AM 48.2 °F - 41.0 °F 76% 30.21 in 3.7 mi NNE 6.9 mph - N/A   Unknown
6:20 AM 50.0 °F - 41.0 °F 71% 30.21 in 3.1 mi NE 6.9 mph - N/A   Mist
6:50 AM 50.0 °F - 42.8 °F 76% 30.21 in - NE 6.9 mph - N/A   Clear
7:20 AM 50.0 °F - 42.8 °F 76% 30.24 in - NE 6.9 mph - N/A   Clear
7:50 AM 51.8 °F - 42.8 °F 71% 30.24 in - NE 6.9 mph - N/A   Clear
8:00 AM 52 °F - 43 °F 61% 30.25 in 6 mi NE 6.9 mph - -  
8:20 AM 53.6 °F - 42.8 °F 67% 30.24 in - Variable 9.2 mph - N/A   Clear
8:50 AM 55.4 °F - 42.8 °F 63% 30.24 in - ENE 9.2 mph - N/A   Clear
9:20 AM 55.4 °F - 42.8 °F 63% 30.24 in - ENE 9.2 mph - N/A   Clear
9:50 AM 57.2 °F - 44.6 °F 63% 30.24 in - Variable 8.1 mph - N/A   Clear
10:20 AM 59.0 °F - 42.8 °F 55% 30.24 in - NE 8.1 mph - N/A   Clear
10:50 AM 60.8 °F - 44.6 °F 55% 30.24 in - NNE 8.1 mph - N/A   Clear
11:20 AM 60.8 °F - 44.6 °F 55% 30.21 in - Variable 9.2 mph - N/A   Clear
11:50 AM 62.6 °F - 44.6 °F 52% 30.21 in - NE 8.1 mph - N/A   Clear
12:20 PM 60.8 °F - 44.6 °F 55% 30.21 in - NNE 10.4 mph - N/A   Clear
12:50 PM 64.4 °F - 44.6 °F 49% 30.21 in - Variable 8.1 mph - N/A   Clear
1:20 PM 62.6 °F - 44.6 °F 52% 30.21 in - ENE 9.2 mph - N/A   Clear
1:50 PM 64.4 °F - 46.4 °F 52% 30.18 in - Variable 9.2 mph - N/A   Clear
2:00 PM 64 °F - 44 °F 38% 30.21 in 6 mi NE 9.2 mph - -  
2:20 PM 62.6 °F - 44.6 °F 52% 30.18 in - NNE 11.5 mph - N/A   Clear
2:50 PM 60.8 °F - 42.8 °F 52% 30.18 in - North 13.8 mph - N/A   Clear
3:20 PM 60.8 °F - 44.6 °F 55% 30.18 in - NNE 11.5 mph - N/A   Clear
3:50 PM 60.8 °F - 44.6 °F 55% 30.18 in - NNE 11.5 mph - N/A   Clear
4:20 PM 60.8 °F - 46.4 °F 59% 30.18 in - NNE 11.5 mph - N/A   Clear
4:50 PM 57.2 °F - 46.4 °F 67% 30.18 in - NNE 13.8 mph - N/A   Clear
5:20 PM 57.2 °F - 46.4 °F 67% 30.18 in - NNE 11.5 mph - N/A   Clear
5:50 PM 55.4 °F - 48.2 °F 77% 30.21 in - NNE 11.5 mph - N/A   Clear
6:20 PM 55.4 °F - 48.2 °F 77% 30.21 in - NNE 11.5 mph - N/A   Clear
6:50 PM 55.4 °F - 48.2 °F 77% 30.21 in - NNE 9.2 mph - N/A   Clear
7:20 PM 55.4 °F - 48.2 °F 77% 30.21 in - NNE 9.2 mph - N/A   Clear
7:50 PM 55.4 °F - 48.2 °F 77% 30.21 in - NE 9.2 mph - N/A   Clear
8:00 PM 56 °F - 48 °F 66% 30.22 in 6 mi NE 9.2 mph - -  
8:20 PM 55.4 °F - 46.4 °F 72% 30.21 in - NNE 6.9 mph - N/A   Clear
8:50 PM 55.4 °F - 48.2 °F 77% 30.21 in - NNE 6.9 mph - N/A   Clear
9:20 PM 55.4 °F - 48.2 °F 77% 30.21 in - NNE 6.9 mph - N/A   Clear
9:50 PM 53.6 °F - 48.2 °F 82% 30.21 in - North 5.8 mph - N/A   Clear
10:20 PM 51.8 °F - 46.4 °F 82% 30.21 in - North 9.2 mph - N/A   Clear
10:50 PM 51.8 °F - 46.4 °F 82% 30.21 in - North 5.8 mph - N/A   Clear